Leadville, CO

2:36 PM MDT on April 25, 2017 (GMT -0600)
Lake County

Weather History for KLXV - April, 2014

Change the Weather History Date:

Sunday, April 13, 2014

  Actual Average Record
Temperature  
Mean Temperature 23 °F -  
Max Temperature 36 °F 43 °F 59 °F (2017)
Min Temperature 9 °F 18 °F -10 °F (1980)
Degree Days  
Heating Degree Days 42 35  
Month to date heating degree days 497 472  
Since 1 July heating degree days 9306 9455  
Cooling Degree Days 0 0  
Month to date cooling degree days 0 0  
Year to date cooling degree days 0 0  
Moisture  
Dew Point 21 °F    
Average Humidity 78    
Maximum Humidity 92    
Minimum Humidity 63    
Precipitation  
Precipitation 0.26 in 0.04 in 0.32 in (2013)
Month to date precipitation 0.54 0.46  
Year to date precipitation 6.39 2.72  
Sea Level Pressure  
Sea Level Pressure 29.74 in    
Wind  
Wind Speed 8 mph (South)    
Max Wind Speed 26 mph    
Max Gust Speed 32 mph    
Visibility 3 miles    
Events Fog , Snow    
T = Trace of Precipitation, MM = Missing Value Source: NWS Daily Summary

Daily Weather History Graph

Daily Weather History Graph

Search for Another Location

Airport or City:

Trip Planner

Search our weather history database for the weather conditions in past years. The results will help you decide how hot, cold, wet, or windy it might be!

Date:

Astronomy

Apr. 13, 2014 Rise Set
Actual Time 6:31 AM MDT 7:40 PM MDT
Civil Twilight 6:03 AM MDT 8:08 PM MDT
Nautical Twilight 5:30 AM MDT 8:41 PM MDT
Astronomical Twilight 4:56 AM MDT 9:16 PM MDT
Moon 6:22 PM MDT (4/13) 5:30 AM MDT (4/13)
Length of Visible Light 14h 04m
Length of Day
13h 09m
Waxing Gibbous, 97% of the Moon is Illuminated
Apr 13
Waxing Gibbous
Apr 15
Full
Apr 22
Last Quarter
Apr 29
New
May 6
First Quarter

Hourly Weather History & Observations

Time (MDT) Temp. Windchill Dew Point Humidity Pressure Visibility Wind Dir Wind Speed Gust Speed Precip Events Conditions
12:53 AM 30.0 °F 23.2 °F 23.0 °F 75% 29.58 in 10.0 mi North 6.9 mph - N/A   Overcast
1:13 AM 30.9 °F 21.7 °F 27.0 °F 85% 29.88 in 1.8 mi North 11.5 mph - 0.00 in Snow Light Snow
1:20 AM 30.0 °F 23.2 °F 27.0 °F 88% 29.87 in 0.8 mi North 6.9 mph - 0.01 in Snow Light Snow
1:33 AM 28.9 °F 23.9 °F 28.0 °F 96% 29.87 in 1.0 mi East 4.6 mph - 0.01 in Snow Light Snow
1:45 AM 28.9 °F 23.9 °F 28.0 °F 96% 29.86 in 2.0 mi ENE 4.6 mph - 0.02 in Snow Light Snow
1:53 AM 28.9 °F 23.9 °F 27.0 °F 92% 29.57 in 8.0 mi East 4.6 mph - 0.02 in   Mostly Cloudy
2:01 AM 28.9 °F 23.9 °F 27.0 °F 92% 29.85 in 10.0 mi East 4.6 mph - N/A   Mostly Cloudy
2:53 AM 28.0 °F 24.2 °F 26.1 °F 92% 29.55 in 10.0 mi East 3.5 mph - N/A   Mostly Cloudy
3:53 AM 27.0 °F - 24.1 °F 89% 29.53 in 10.0 mi Calm Calm - N/A   Mostly Cloudy
4:53 AM 25.0 °F 19.3 °F 23.0 °F 92% 29.54 in 10.0 mi NE 4.6 mph - N/A   Mostly Cloudy
5:53 AM 26.1 °F 21.9 °F 23.0 °F 88% 29.54 in 10.0 mi ENE 3.5 mph - N/A   Overcast
6:53 AM 27.0 °F 23.0 °F 24.1 °F 89% 29.53 in 10.0 mi SSE 3.5 mph - N/A   Overcast
7:53 AM 28.0 °F - 25.0 °F 88% 29.53 in 10.0 mi Calm Calm - 0.00 in   Overcast
8:53 AM 30.9 °F 24.3 °F 27.0 °F 85% 29.53 in 10.0 mi South 6.9 mph - 0.00 in   Overcast
9:53 AM 34.0 °F 26.6 °F 26.1 °F 73% 29.47 in 10.0 mi South 9.2 mph - N/A   Overcast
10:50 AM 33.8 °F 24.3 °F 26.6 °F 75% 29.72 in 4.0 mi SSE 13.8 mph 24.2 mph 0.00 in Snow Light Snow
10:53 AM 33.1 °F 23.0 °F 27.0 °F 78% 29.51 in 3.0 mi SSE 15.0 mph - 0.00 in Snow Light Snow
11:00 AM 33.1 °F 23.0 °F 27.0 °F 78% 29.72 in 1.8 mi SSE 15.0 mph 23.0 mph 0.00 in Snow Light Snow
11:17 AM 34.0 °F 23.4 °F 27.0 °F 75% 29.71 in 2.5 mi SSE 17.3 mph 31.1 mph 0.00 in Snow Light Snow
11:21 AM 35.1 °F 24.5 °F 27.0 °F 72% 29.70 in 4.0 mi SSE 18.4 mph 31.1 mph 0.00 in Snow Light Snow
11:53 AM 35.1 °F 23.5 °F 25.0 °F 67% 29.46 in 9.0 mi South 21.9 mph 27.6 mph 0.00 in   Overcast
12:09 PM 33.1 °F 21.9 °F 27.0 °F 78% 29.69 in 2.5 mi SSE 18.4 mph 27.6 mph 0.00 in Snow Light Snow
12:16 PM 33.1 °F 21.5 °F 27.0 °F 78% 29.69 in 3.0 mi South 19.6 mph 28.8 mph 0.00 in Snow Light Snow
12:24 PM 34.0 °F 22.4 °F 27.0 °F 75% 29.69 in 2.0 mi SSE 20.7 mph 27.6 mph 0.00 in Snow Light Snow
12:34 PM 33.1 °F 22.2 °F 28.0 °F 82% 29.69 in 1.8 mi SSE 17.3 mph 28.8 mph 0.00 in Snow Light Snow
12:53 PM 32.0 °F 21.6 °F 28.0 °F 85% 29.48 in 1.2 mi South 15.0 mph - 0.00 in Snow Light Snow
1:03 PM 30.9 °F 19.1 °F 27.0 °F 85% 29.71 in 0.2 mi WSW 18.4 mph 25.3 mph 0.00 in Fog , Snow Light Snow
1:08 PM 28.9 °F 16.9 °F 28.0 °F 96% 29.71 in 0.2 mi WNW 17.3 mph 25.3 mph 0.01 in Fog , Snow Heavy Snow
1:16 PM 28.9 °F 21.1 °F 28.0 °F 96% 29.72 in 0.2 mi NNW 8.1 mph - 0.04 in Fog , Snow Heavy Snow
1:33 PM 28.9 °F 19.8 °F 26.1 °F 89% 29.73 in 0.8 mi West 10.4 mph - 0.06 in Snow Light Snow
1:40 PM 28.0 °F 20.0 °F 25.0 °F 88% 29.74 in 1.8 mi West 8.1 mph - 0.06 in Snow Light Snow
1:53 PM 27.0 °F 19.5 °F 23.0 °F 85% 29.59 in 1.2 mi West 6.9 mph 23.0 mph 0.06 in Snow Light Snow
2:17 PM 28.0 °F 22.8 °F 25.0 °F 88% 29.76 in 3.0 mi East 4.6 mph - 0.00 in Snow Light Snow
2:29 PM 28.9 °F 21.9 °F 24.1 °F 82% 29.76 in 5.0 mi Variable 6.9 mph - 0.00 in Snow Light Snow
2:53 PM 30.0 °F 24.1 °F 24.1 °F 79% 29.56 in 3.0 mi NE 5.8 mph - 0.00 in Snow Light Snow
3:14 PM 30.9 °F 24.3 °F 25.0 °F 79% 29.76 in 1.8 mi NNW 6.9 mph - 0.00 in Snow Light Snow
3:25 PM 28.9 °F 22.8 °F 24.1 °F 82% 29.76 in 1.0 mi Variable 5.8 mph - 0.00 in Snow Light Snow
3:35 PM 28.0 °F 20.8 °F 25.0 °F 88% 29.76 in 0.8 mi WNW 6.9 mph - 0.01 in Snow Light Snow
3:39 PM 28.9 °F 22.8 °F 25.0 °F 85% 29.76 in 1.0 mi NW 5.8 mph - 0.01 in Snow Light Snow
3:45 PM 28.9 °F 21.9 °F 24.1 °F 82% 29.76 in 2.0 mi NW 6.9 mph - 0.01 in Snow Light Snow
3:53 PM 30.0 °F 21.7 °F 23.0 °F 75% 29.57 in 9.0 mi NNW 9.2 mph - 0.01 in   Overcast
4:53 PM 30.9 °F 26.2 °F 19.0 °F 61% 29.57 in 10.0 mi NW 4.6 mph - N/A   Overcast
5:40 PM 27.0 °F 15.6 °F 23.0 °F 85% 29.76 in 2.5 mi West 13.8 mph - 0.00 in Snow Light Snow
5:47 PM 24.8 °F 17.9 °F 21.2 °F 86% 29.78 in 1.8 mi Variable 5.8 mph 23.0 mph 0.00 in Snow Light Snow
5:53 PM 24.8 °F 16.9 °F 21.2 °F 86% 29.79 in 1.2 mi SE 6.9 mph 23.0 mph N/A Snow Light Snow
5:56 PM 24.1 °F 19.7 °F 21.0 °F 88% 29.79 in 0.8 mi Variable 3.5 mph - 0.00 in Snow Light Snow
6:00 PM 24.1 °F - 21.0 °F 88% 29.79 in 0.2 mi Calm Calm - 0.01 in Fog , Snow Snow
6:26 PM 23.0 °F 11.1 °F 19.0 °F 85% 29.80 in 0.8 mi North 12.7 mph - 0.04 in Snow Light Snow
6:31 PM 23.0 °F 11.7 °F 18.0 °F 81% 29.80 in 2.5 mi North 11.5 mph - 0.04 in Snow Light Snow
6:38 PM 23.0 °F 11.1 °F 18.0 °F 81% 29.80 in 6.0 mi NNE 12.7 mph - 0.04 in Snow Light Snow
6:53 PM 23.0 °F 13.1 °F 18.0 °F 81% 29.68 in 4.0 mi NNE 9.2 mph - 0.04 in Snow Light Snow
7:14 PM 23.0 °F 13.9 °F 17.1 °F 78% 29.81 in 9.0 mi North 8.1 mph - 0.00 in   Overcast
7:36 PM 21.9 °F 11.7 °F 19.0 °F 89% 29.82 in 4.0 mi SW 9.2 mph - 0.00 in Snow Light Snow
7:41 PM 21.0 °F 11.4 °F 18.0 °F 88% 29.83 in 1.8 mi SSW 8.1 mph - 0.00 in Snow Light Snow
7:51 PM 19.4 °F 7.9 °F 17.6 °F 93% 29.83 in 1.0 mi South 10.4 mph - 0.00 in Snow Light Snow
7:53 PM 19.9 °F 9.3 °F 18.0 °F 92% 29.73 in 1.2 mi South 9.2 mph - 0.01 in Snow Light Snow
8:12 PM 19.0 °F 5.6 °F 16.0 °F 88% 29.85 in 0.8 mi South 13.8 mph - 0.00 in Snow Light Snow
8:21 PM 18.0 °F 5.4 °F 16.0 °F 92% 29.85 in 0.5 mi South 11.5 mph - 0.01 in Fog , Snow Snow
8:51 PM 17.6 °F 7.3 °F 15.8 °F 93% 29.87 in 1.2 mi South 8.1 mph - 0.04 in Snow Light Snow
8:53 PM 17.1 °F 11.7 °F 15.1 °F 92% 29.77 in 1.2 mi South 3.5 mph - 0.04 in Snow Light Snow
9:06 PM 17.1 °F 8.7 °F 15.1 °F 92% 29.88 in 1.2 mi Variable 5.8 mph - 0.01 in Snow Light Snow
9:24 PM 16.0 °F 10.4 °F 14.0 °F 92% 29.89 in 0.8 mi WSW 3.5 mph - 0.02 in Snow Light Snow
9:34 PM 16.0 °F 3.6 °F 14.0 °F 92% 29.90 in 1.0 mi SSW 10.4 mph - 0.02 in Snow Light Snow
9:53 PM 15.1 °F 2.5 °F 12.9 °F 91% 29.78 in 1.0 mi South 10.4 mph - 0.03 in Snow Light Snow
10:02 PM 15.1 °F 1.1 °F 12.0 °F 88% 29.91 in 0.8 mi South 12.7 mph - 0.01 in Snow Light Snow
10:10 PM 14.0 °F 1.2 °F 12.0 °F 92% 29.91 in 1.0 mi South 10.4 mph - 0.01 in Snow Light Snow
10:49 PM 12.2 °F 1.7 °F 10.4 °F 92% 29.93 in 1.2 mi South 6.9 mph - 0.03 in Snow Light Snow
10:53 PM 12.9 °F 0.7 °F 10.9 °F 92% 29.84 in 1.2 mi South 9.2 mph - 0.03 in Snow Light Snow
11:06 PM 12.0 °F 0.5 °F 10.0 °F 92% 29.93 in 1.2 mi South 8.1 mph - 0.01 in Snow Light Snow
11:29 PM 12.0 °F 1.5 °F 9.0 °F 88% 29.94 in 1.2 mi South 6.9 mph - 0.02 in Snow Light Snow
11:39 PM 10.9 °F -1.8 °F 9.0 °F 92% 29.95 in 3.0 mi South 9.2 mph - 0.02 in Snow Light Snow
11:50 PM 10.4 °F -0.4 °F 8.6 °F 92% 29.95 in 3.0 mi South 6.9 mph - N/A Snow Light Snow
11:53 PM 10.9 °F -0.8 °F 9.0 °F 92% 29.86 in 3.0 mi South 8.1 mph - 0.02 in Snow Light Snow